Погода в Ивановке

Украина / Кировоградская область     48°26′12″N   32°08′05″E
темп.,
°C
ветер,
м/с
пор.,
м/с
влажн.,
%
обл.,
%
осадки,
мм/ч
давл.,
гПа
погр.,
м
22 января, сб
сб2223:00−4зюз7138498 0.0 1010607
02:00−5зюз6138973 0.0 1010488
05:00−5зюз6129091 0.0 1010437
08:00−5зюз5119290 0.0 1010407
11:00−2з678296 0.1 1011692
14:00−2з5774100 0.1 1012946
17:00−4зюз3689100 0.1 1013125
20:00−4зюз378889 0.1 1014173
23 января, вс
вс2323:00−7зюз249444 0.0 101680
02:00−7з239769 0.0 101674
05:00−6сз259691 0.1 1016150
08:00−7с249664 0.3 1018140
11:00−4св338397 0.0 1019434
14:00−3всв4576100 0.1 1020834
17:00−4св488828 0.1 1022354
20:00−6ссв5119583 0.1 1025320
24 января, пн
пн2423:00−7ссв6129491 0.0 1026357
02:00−7с61293100 0.0 1026415
05:00−7с71587100 0.0 1025479
08:00−7с81689100 0.1 1026554
11:00−6с81389100 0.5 1026619
14:00−6с71190100 1.3 1025559
17:00−6с61193100 0.5 1026495
20:00−6с6109292 0.8 1026385
25 января, вт
вт2523:00−7с5994100 0.1 1027303
02:00−8ссз4894100 0.1 1026256
05:00−8ссз4893100 0.1 1026355
08:00−8ссз4793100 0.3 1025314
11:00−7ссз4686100 0.1 1025460
14:00−6сз4582100 0.2 1024585
17:00−6сз3690100 0.0 1023421
20:00−7зсз2593100 0.1 1023287
26 января, ср
ср2623:00−8з2494100 0.0 1022145
02:00−9зюз3694100 0.0 1021140
05:00−10юз3792100 0.0 1019130
08:00−8ююз3795100 0.1 1018228
11:00−5юз4592100 0.7 1017365
14:00−3зсз4792100 1.3 1016590
17:00−4ссз5119075 0.2 1017495
20:00−5сз6119383 0.4 1018458